Find Starlink 36948

NORAD ID: 68209 Int'l Des: 2026-053 Owner: SPXS Country: US Constellation: starlink operational
LEOCIRCULARRETROGRADE

リアルタイム位置

3D地球を読み込み中...

Starlink 36948について

説明を読み込み中...

次回通過

Passes for default location (London). Set your location on the main map for personalized predictions.

高度履歴

Loading altitude history...

軌道要素

1 68209U 26053C 26122.38296803 .00017454 00000-0 54185-3 0 9990
2 68209 97.2862 358.1102 0002128 95.2021 264.9465 15.33436418 8421
Epoch: May 2, 2026 • Age: 10 hours

現在のステータス

高度 467.5 km
速度 7.63 km/s
衛星直下点 16.19°N, 30.44°E
打ち上げ日 Mar 17, 2026
運用期間 0.1 years
タイプ internet

技術仕様

分類 Payload
質量 575.00 kg
乾燥質量 530.00 kg
総質量 575.00 kg
長さ 0.30 m
直径 4.10 m
スパン 29.00 m
形状 Box + pan
製造者 SPXS
バスタイプ Starlink V2MO
フェーズステータス In Orbit
所有者/国 SPXS/US

Most Searched